Needles, CA

9:24 PM PST on February 06, 2016 (GMT -0800)
Needles

Weather History for KEED - December, 2012

Change the Weather History Date:

Wednesday, December 12, 2012

  Actual Average Record
Temperature  
Mean Temperature 57 °F 53 °F  
Max Temperature 68 °F 63 °F 80 °F (1958)
Min Temperature 46 °F 42 °F 24 °F (1916)
Degree Days  
Heating Degree Days 8    
Cooling Degree Days 0    
Growing Degree Days 7 (Base 50)    
Moisture  
Dew Point 20 °F    
Average Humidity 25    
Maximum Humidity 37    
Minimum Humidity 15    
Precipitation  
Precipitation 0.00 in 0.01 in 0.33 in (1951)
Month to date precipitation 0.15  
Year to date precipitation 4.26  
Sea Level Pressure  
Sea Level Pressure 29.85 in    
Wind  
Wind Speed 4 mph (West)    
Max Wind Speed 9 mph    
Max Gust Speed -    
Visibility 10 miles    
Events      
T = Trace of Precipitation, MM = Missing Value Source: NWS Daily Summary

Daily Weather History Graph

Daily Weather History Graph

Search for Another Location

Airport or City:

Trip Planner

Search our weather history database for the weather conditions in past years. The results will help you decide how hot, cold, wet, or windy it might be!

Date:

Astronomy

Dec. 12, 2012 Rise Set
Actual Time 6:36 AM PST 4:28 PM PST
Civil Twilight 6:08 AM PST 4:56 PM PST
Nautical Twilight 5:37 AM PST 5:27 PM PST
Astronomical Twilight 5:06 AM PST 5:58 PM PST
Moon 5:46 AM PST (12/12) 4:08 PM PST (12/12)
Length of Visible Light 10h 47m
Length of Day
9h 51m
Waning Crescent, 0% of the Moon is Illuminated
Dec 12
Waning Crescent
Dec 13
New
Dec 19
First Quarter
Dec 28
Full
Jan 4
Last Quarter

Hourly Weather History & Observations

Time (PST) Temp. Windchill Dew Point Humidity Pressure Visibility Wind Dir Wind Speed Gust Speed Precip Events Conditions
12:56 AM 48.0 °F - 21.9 °F 36% 29.91 in 10.0 mi Variable 3.5 mph - N/A   Clear
1:56 AM 48.0 °F - 21.9 °F 36% 29.90 in 10.0 mi WNW 3.5 mph - N/A   Clear
2:56 AM 48.0 °F - 21.9 °F 36% 29.89 in 10.0 mi NW 6.9 mph - N/A   Clear
3:56 AM 46.0 °F 43.9 °F 21.0 °F 37% 29.87 in 10.0 mi WNW 4.6 mph - N/A   Clear
4:56 AM 46.0 °F 43.9 °F 21.0 °F 37% 29.88 in 10.0 mi WNW 4.6 mph - N/A   Clear
5:56 AM 48.0 °F - 19.9 °F 33% 29.90 in 10.0 mi NW 4.6 mph - N/A   Clear
6:56 AM 48.0 °F - 21.9 °F 36% 29.91 in 10.0 mi Calm Calm - N/A   Clear
7:56 AM 53.1 °F - 18.0 °F 25% 29.91 in 10.0 mi WSW 3.5 mph - N/A   Clear
9:56 AM 57.0 °F - 21.9 °F 26% 29.93 in 10.0 mi North 4.6 mph - N/A   Clear
10:56 AM 61.0 °F - 19.0 °F 20% 29.90 in 10.0 mi Calm Calm - N/A   Clear
11:56 AM 64.0 °F - 19.0 °F 18% 29.86 in 10.0 mi Calm Calm - N/A   Clear
12:56 PM 64.9 °F - 21.0 °F 19% 29.83 in 10.0 mi East 4.6 mph - N/A   Clear
1:56 PM 66.9 °F - 21.0 °F 17% 29.81 in 10.0 mi NE 3.5 mph - N/A   Clear
2:56 PM 68.0 °F - 18.0 °F 15% 29.80 in 10.0 mi SSE 5.8 mph - N/A   Clear
3:56 PM 66.9 °F - 18.0 °F 15% 29.79 in 10.0 mi Calm Calm - N/A   Clear
4:56 PM 61.0 °F - 19.0 °F 20% 29.79 in 10.0 mi Calm Calm - N/A   Clear
5:56 PM 62.1 °F - 18.0 °F 18% 29.80 in 10.0 mi SW 8.1 mph - N/A   Clear
6:56 PM 60.1 °F - 18.0 °F 20% 29.79 in 10.0 mi WSW 5.8 mph - N/A   Clear
8:56 PM 62.1 °F - 19.9 °F 20% 29.78 in 10.0 mi SSW 9.2 mph - N/A   Clear
9:56 PM 57.0 °F - 21.0 °F 25% 29.80 in 10.0 mi WSW 5.8 mph - N/A   Clear
10:56 PM 54.0 °F - 19.9 °F 26% 29.81 in 10.0 mi WSW 5.8 mph - N/A   Clear
11:56 PM 59.0 °F - 18.0 °F 20% 29.79 in 10.0 mi South 5.8 mph - N/A   Clear